Location: Cieszkowy
(50.3290°N, 20.5336°E)
Time: 23:17:01
(UTC+00:00)

COBE Rocket - Pass Details

Date: 15 June 2024
Orbit: 678 x 776 km, 97.1° (Epoch: 18 July)

Event Time Altitude Azimuth Distance (km) Brightness Sun altitude
Rises 00:18:24 0° 12° (NNE) 3,251 9.0 -13.1°
Reaches altitude 10° 00:20:43 10° 12° (NNE) 2,328 7.9 -12.9°
Maximum altitude 00:25:53 89° 294° (WNW) 784 4.0 -12.6°
Enters shadow 00:29:58 17° 195° (SSW) 1,899 5.4 -12.3°
